Ketchikan, AK

4:26 AM AKDT on August 15, 2018 (GMT -0800)
Ketchikan International

Weather History for PAKT - May, 2018

Change the Weather History Date:

Sunday, May 20, 2018

  Actual Average Record
Temperature  
Mean Temperature 50 °F -  
Max Temperature 54 °F 55 °F 73 °F (2016)
Min Temperature 48 °F 41 °F 30 °F (2003)
Degree Days  
Heating Degree Days 14    
Moisture  
Dew Point 47 °F    
Average Humidity 88    
Maximum Humidity 96    
Minimum Humidity 67    
Precipitation  
Precipitation 0.55 in - - ()
Sea Level Pressure  
Sea Level Pressure 29.95 in    
Wind  
Wind Speed 9 mph (SSE)    
Max Wind Speed 18 mph    
Max Gust Speed 25 mph    
Visibility 7 miles    
Events Rain    
Averages and records for this station are not official NWS values.
T = Trace of Precipitation, MM = Missing Value Source: NWS Daily Summary

Daily Weather History Graph

Daily Weather History Graph

Search for Another Location

Airport or City:

Astronomy

May. 20, 2018 Rise Set
Actual Time 4:28 AM AKDT 8:59 PM AKDT
Civil Twilight 3:38 AM AKDT 9:50 PM AKDT
Nautical Twilight 2:17 AM AKDT 11:12 PM AKDT
Astronomical Twilight Sun does not set Sun does not set
Moon 10:00 AM AKDT (5/20) 1:22 AM AKDT (5/20)
Length of Visible Light 18h 12m
Length of Day
16h 30m
Waxing Crescent, 35% of the Moon is Illuminated
May 20
Waxing Crescent
May 21
First Quarter
May 29
Full
Jun 6
Last Quarter
Jun 13
New

Hourly Weather History & Observations

Time (AKDT) Temp. Dew Point Humidity Pressure Visibility Wind Dir Wind Speed Gust Speed Precip Events Conditions
12:53 AM 48.9 °F 46.0 °F 90% 29.92 in 10.0 mi SSE 4.6 mph - 0.00 in Rain Light Rain
1:53 AM 48.9 °F 46.9 °F 93% 29.92 in 10.0 mi SE 6.9 mph - 0.00 in Rain Light Rain
2:53 AM 48.9 °F 46.9 °F 93% 29.92 in 10.0 mi SSE 6.9 mph - 0.01 in   Overcast
3:53 AM 48.9 °F 46.0 °F 90% 29.93 in 10.0 mi SSE 6.9 mph - 0.01 in   Overcast
4:51 AM 48.2 °F 46.4 °F 93% 29.92 in 10.0 mi SSE 4.6 mph - N/A   Overcast
4:53 AM 48.9 °F 46.0 °F 90% 29.92 in 10.0 mi South 4.6 mph - N/A   Overcast
5:23 AM 48.9 °F 46.0 °F 90% 29.92 in 10.0 mi South 5.8 mph - N/A   Overcast
5:53 AM 48.9 °F 46.0 °F 90% 29.93 in 10.0 mi SSE 10.4 mph - N/A   Overcast
6:05 AM 48.2 °F 46.4 °F 93% 29.93 in 10.0 mi SSE 10.4 mph - N/A   Overcast
6:53 AM 48.2 °F 46.4 °F 93% 29.93 in 10.0 mi SE 8.1 mph - N/A   Overcast
7:53 AM 50.0 °F 46.4 °F 87% 29.94 in 10.0 mi SE 10.4 mph - N/A   Overcast
8:53 AM 51.8 °F 46.4 °F 82% 29.95 in 10.0 mi ESE 16.1 mph - N/A   Overcast
9:53 AM 53.6 °F 44.6 °F 72% 29.95 in 10.0 mi ESE 18.4 mph 23.0 mph N/A   Overcast
10:53 AM 51.8 °F 42.8 °F 71% 29.96 in 9.0 mi SE 13.8 mph 25.3 mph N/A   Overcast
11:53 AM 53.6 °F 42.8 °F 67% 29.97 in 8.0 mi SSE 13.8 mph 21.9 mph N/A   Overcast
12:53 PM 53.6 °F 44.6 °F 72% 29.98 in 10.0 mi SSE 11.5 mph - N/A   Overcast
1:53 PM 50.0 °F 48.9 °F 96% 30.00 in 3.0 mi SE 10.4 mph - 0.06 in Rain Light Rain
2:53 PM 50.0 °F 48.2 °F 94% 30.00 in 3.0 mi SE 10.4 mph - N/A   Overcast
3:53 PM 51.8 °F 48.2 °F 88% 30.00 in 10.0 mi SE 10.4 mph - N/A   Overcast
4:53 PM 51.8 °F 48.2 °F 88% 29.99 in 10.0 mi SE 8.1 mph 19.6 mph N/A Rain Light Rain
5:53 PM 51.8 °F 48.2 °F 88% 29.99 in 10.0 mi SSE 13.8 mph 19.6 mph N/A Rain Light Rain
6:53 PM 51.8 °F 46.4 °F 82% 29.98 in 10.0 mi SSE 10.4 mph 21.9 mph N/A   Overcast
7:53 PM 50.0 °F 46.4 °F 87% 29.98 in 10.0 mi SSE 9.2 mph - N/A Rain Light Rain
8:53 PM 50.0 °F 46.9 °F 89% 29.98 in 7.0 mi SSE 11.5 mph 20.7 mph 0.01 in Rain Light Rain
8:55 PM 50.0 °F 46.9 °F 89% 29.97 in 6.0 mi SSE 10.4 mph 20.7 mph 0.00 in Rain Light Rain
9:38 PM 50.0 °F 46.9 °F 89% 29.97 in 3.0 mi SSE 10.4 mph - 0.06 in Rain Light Rain
9:53 PM 50.0 °F 46.9 °F 89% 29.97 in 2.0 mi SSE 11.5 mph - 0.09 in Rain Light Rain
10:06 PM 50.0 °F 48.0 °F 93% 29.96 in 1.8 mi SSE 10.4 mph 18.4 mph 0.03 in Rain Rain
10:51 PM 50.0 °F 48.2 °F 94% 29.95 in 1.8 mi SE 10.4 mph - 0.19 in Rain Rain
10:53 PM 50.0 °F 48.0 °F 93% 29.96 in 1.8 mi SE 9.2 mph - 0.19 in Rain Rain
11:17 PM 50.0 °F 48.0 °F 93% 29.94 in 1.8 mi SSE 10.4 mph - 0.08 in Rain Light Rain
11:27 PM 50.0 °F 48.0 °F 93% 29.94 in 2.0 mi SE 11.5 mph - 0.11 in Rain Light Rain
11:35 PM 50.0 °F 48.0 °F 93% 29.94 in 2.5 mi SE 12.7 mph - 0.13 in Rain Rain
11:42 PM 50.0 °F 48.0 °F 93% 29.94 in 3.0 mi SSE 10.4 mph - 0.15 in Rain Light Rain
11:53 PM 50.0 °F 48.0 °F 93% 29.94 in 2.5 mi SE 13.8 mph - 0.18 in Rain Rain